Date String (YYYY-MM-DD hh:mm:ss) UTC,Instrument flags,Ambient pressure (hPa),Sample flow (lpm),Bypass flow (lpm),Sample temperature (°C),Ambient temperature (°C),ASC tube jacket temperature (°C),LED temperature (°C),Box temperature (°C),Sample RH (%),Span deviation,Mass concentration (μg/m³),Mass concentration (μg/m³),Mass concentration (μg/m³)
DateTimeUTC,F1_M11,P_M11,Q1_M11,Q2_M11,T1_M11,T2_M11,T3_M11,T4_M11,T5_M11,U1_M11,ZSPAN_M11,X2_M11,X0_M11,X1_M11
2022-09-07 01:00:00,,0831.0,5.00,0.00,29.6,28.1,00.0,38.1,31.5,14.8,0003.6,0023.43,0033.88,0021.72
2022-09-07 01:01:00,,0831.0,5.00,0.00,29.5,26.9,00.0,38.1,31.3,14.7,0003.3,0023.48,0034.05,0021.77
2022-09-07 01:02:00,,0831.1,4.99,0.00,29.5,26.4,00.0,38.1,31.3,14.8,0003.2,0023.43,0033.72,0021.80
2022-09-07 01:03:00,,0831.0,4.99,0.00,29.5,26.7,00.0,38.1,31.2,14.8,0002.9,0023.47,0033.57,0021.83
2022-09-07 01:04:00,,0831.0,5.00,0.00,29.4,27.0,00.0,38.0,31.1,14.8,0002.6,0023.44,0034.48,0021.81
2022-09-07 01:05:00,,0831.0,5.01,0.00,29.4,27.3,00.0,38.0,31.1,14.8,0002.4,0023.40,0036.05,0021.79
2022-09-07 01:06:00,,0831.1,5.01,0.00,29.4,27.6,00.0,38.0,31.2,14.8,0002.6,0023.38,0034.77,0021.75
2022-09-07 01:07:00,,0831.1,4.98,0.00,29.5,27.9,00.0,38.1,31.3,14.7,0002.6,0023.37,0034.81,0021.73
2022-09-07 01:08:00,,0831.1,5.01,0.00,29.5,28.2,00.0,38.1,31.4,14.6,0002.5,0023.36,0035.82,0021.75
2022-09-07 01:09:00,,0831.1,4.98,0.00,29.5,28.0,00.0,38.1,31.4,14.7,0003.2,0023.46,0036.26,0021.76
2022-09-07 01:10:00,,0831.1,5.01,0.00,29.5,26.8,00.0,38.1,31.2,15.0,0003.3,0023.50,0036.76,0021.78
2022-09-07 01:11:00,,0831.1,5.00,0.00,29.4,26.3,00.0,38.1,31.2,15.1,0003.4,0023.47,0037.24,0021.77
2022-09-07 01:12:00,,0831.1,5.01,0.00,29.4,26.5,00.0,38.1,31.2,15.1,0003.1,0023.30,0037.60,0021.65
2022-09-07 01:13:00,,0831.1,4.99,0.00,29.4,26.8,00.0,38.0,31.0,15.2,0002.9,0023.21,0039.35,0021.55
2022-09-07 01:14:00,,0831.2,5.01,0.00,29.3,27.2,00.0,38.0,31.1,15.4,0003.4,0023.08,0039.10,0021.45
2022-09-07 01:15:00,,0831.2,5.00,0.00,29.4,27.5,00.0,38.0,31.2,15.5,0003.5,0023.02,0039.17,0021.38
2022-09-07 01:16:00,,0831.1,5.00,0.00,29.4,27.8,00.0,38.0,31.2,15.6,0003.5,0023.01,0038.42,0021.32
2022-09-07 01:17:00,,0831.1,4.98,0.00,29.4,28.1,00.0,38.0,31.3,15.8,0003.5,0022.97,0037.77,0021.29
2022-09-07 01:18:00,,0831.1,5.02,0.00,29.5,28.3,00.0,38.1,31.4,15.8,0003.4,0022.97,0037.34,0021.27
2022-09-07 01:19:00,,0831.2,4.98,0.00,29.5,27.6,00.0,38.1,31.4,15.7,0003.6,0022.95,0037.22,0021.22
2022-09-07 01:20:00,,0831.1,5.01,0.00,29.5,26.4,00.0,38.1,31.3,15.7,0003.1,0022.87,0037.37,0021.17
2022-09-07 01:21:00,,0831.1,5.00,0.00,29.4,26.4,00.0,38.0,31.2,15.9,0003.2,0022.73,0036.38,0021.13
2022-09-07 01:22:00,,0831.1,5.01,0.00,29.4,26.7,00.0,38.0,31.1,16.4,0002.7,0022.63,0035.58,0021.09
2022-09-07 01:23:00,,0831.1,4.99,0.00,29.3,27.0,00.0,38.0,31.0,16.8,0002.8,0022.70,0034.75,0021.13
2022-09-07 01:24:00,,0831.2,5.01,0.00,29.3,27.3,00.0,38.0,31.1,16.8,0003.4,0022.78,0032.99,0021.16
2022-09-07 01:25:00,,0831.2,5.00,0.00,29.4,27.6,00.0,38.0,31.2,16.4,0003.6,0022.88,0033.24,0021.19
2022-09-07 01:26:00,,0831.2,5.01,0.00,29.4,27.9,00.0,38.0,31.3,16.0,0003.6,0022.92,0033.54,0021.22
2022-09-07 01:27:00,,0831.2,4.99,0.00,29.4,28.1,00.0,38.0,31.3,15.8,0003.7,0022.94,0033.80,0021.26
2022-09-07 01:28:00,,0831.2,4.99,0.00,29.5,28.1,00.0,38.1,31.4,15.6,0003.9,0023.00,0034.00,0021.30
2022-09-07 01:29:00,,0831.1,5.00,0.00,29.5,27.0,00.0,38.1,31.2,15.7,0003.8,0023.00,0034.67,0021.30
2022-09-07 01:30:00,,0831.2,4.99,0.00,29.4,26.1,00.0,38.1,31.0,15.8,0003.3,0023.05,0035.33,0021.33
2022-09-07 01:31:00,,0831.2,5.00,0.00,29.3,26.3,00.0,38.0,31.1,15.8,0003.1,0023.02,0035.52,0021.35
2022-09-07 01:32:00,,0831.2,5.00,0.00,29.3,26.6,00.0,38.0,30.9,15.9,0003.0,0023.09,0036.17,0021.37
2022-09-07 01:33:00,,0831.2,5.00,0.00,29.3,26.9,00.0,38.0,30.9,15.8,0003.1,0023.20,0036.61,0021.40
2022-09-07 01:34:00,,0831.2,5.01,0.00,29.3,27.3,00.0,38.0,31.0,15.7,0003.2,0023.23,0036.76,0021.41
2022-09-07 01:35:00,,0831.2,5.01,0.00,29.3,27.6,00.0,38.0,31.1,15.7,0002.7,0023.23,0037.21,0021.44
2022-09-07 01:36:00,,0831.2,4.99,0.00,29.3,27.9,00.0,38.0,31.2,15.5,0002.3,0023.25,0037.74,0021.47
2022-09-07 01:37:00,,0831.2,5.00,0.00,29.4,28.1,00.0,38.0,31.3,15.3,0002.0,0023.23,0038.19,0021.52
2022-09-07 01:38:00,,0831.2,4.99,0.00,29.4,28.2,00.0,38.0,31.4,15.1,0002.1,0023.25,0037.77,0021.54
2022-09-07 01:39:00,,0831.2,5.00,0.00,29.4,27.1,00.0,38.1,31.3,15.1,0001.5,0023.27,0037.90,0021.57
2022-09-07 01:40:00,,0831.2,5.00,0.00,29.4,26.2,00.0,38.0,31.1,15.3,0001.3,0023.33,0037.32,0021.65
2022-09-07 01:41:00,,0831.2,5.01,0.00,29.3,26.3,00.0,38.0,31.1,15.2,0001.5,0023.36,0036.20,0021.72
2022-09-07 01:42:00,,0831.2,5.01,0.00,29.3,26.5,00.0,37.9,30.9,15.3,0001.8,0023.44,0035.64,0021.78
2022-09-07 01:43:00,,0831.3,5.01,0.00,29.2,26.9,00.0,37.9,30.9,15.4,0002.2,0023.60,0035.87,0021.90
2022-09-07 01:44:00,,0831.3,5.00,0.00,29.2,27.2,00.0,37.9,31.0,15.4,0002.1,0023.71,0036.71,0022.05
2022-09-07 01:45:00,,0831.3,5.01,0.00,29.3,27.6,00.0,37.9,31.1,15.3,0002.0,0023.80,0037.09,0022.17
2022-09-07 01:46:00,,0831.3,4.98,0.00,29.3,27.8,00.0,37.9,31.2,15.3,0002.2,0023.89,0037.40,0022.27
2022-09-07 01:47:00,,0831.3,5.01,0.00,29.3,28.1,00.0,38.0,31.3,15.2,0002.3,0024.00,0037.04,0022.39
2022-09-07 01:48:00,,0831.3,4.99,0.00,29.4,28.3,00.0,38.0,31.4,15.0,0002.6,0024.11,0035.72,0022.48
2022-09-07 01:49:00,,0831.3,5.01,0.00,29.5,28.0,00.0,38.0,31.4,15.0,0002.7,0024.23,0035.74,0022.61
2022-09-07 01:50:00,,0831.3,4.98,0.00,29.4,26.7,00.0,38.0,31.2,14.9,0003.1,0024.33,0035.58,0022.73
2022-09-07 01:51:00,,0831.3,5.00,0.00,29.3,26.1,00.0,38.0,31.1,14.9,0003.5,0024.48,0036.06,0022.85
2022-09-07 01:52:00,,0831.3,5.01,0.00,29.3,26.3,00.0,38.0,31.0,14.9,0003.3,0024.58,0037.93,0022.98
2022-09-07 01:53:00,,0831.3,5.01,0.00,29.2,26.6,00.0,37.9,30.9,15.0,0003.2,0024.66,0037.81,0023.10
2022-09-07 01:54:00,,0831.3,4.99,0.00,29.2,27.0,00.0,37.9,31.0,15.0,0002.6,0024.66,0038.53,0023.13
2022-09-07 01:55:00,,0831.3,5.00,0.00,29.2,27.3,00.0,37.9,31.0,14.9,0002.4,0024.67,0037.61,0023.17
2022-09-07 01:56:00,,0831.3,5.00,0.00,29.3,27.6,00.0,37.9,31.1,14.9,0002.5,0024.72,0037.43,0023.24
2022-09-07 01:57:00,,0831.3,5.01,0.00,29.3,27.9,00.0,37.9,31.2,14.7,0002.0,0024.82,0037.75,0023.33
2022-09-07 01:58:00,,0831.3,4.98,0.00,29.3,28.1,00.0,38.0,31.3,14.7,0002.1,0024.81,0037.52,0023.38
2022-09-07 01:59:00,,0831.4,5.01,0.00,29.4,28.3,00.0,38.0,31.4,14.6,0002.0,0024.86,0037.76,0023.45
